Miscellaneous Local Product
Issued by NWS North Platte, NE

Home | Current Version | Previous Version | Text Only | Print | Product List | Glossary On
Versions: 1 2 3 4 5 6 7 8 9 10 11 12 13 14 15 16 17 18 19 20 21 22 23 24 25 26 27 28 29 30 31 32 33 34 35 36 37 38 39 40 41 42 43 44 45 46 47 48 49 50
000
AXUS43 KLBF 231810
MISLBF


WESTERN AND NORTH CENTRAL NEBRASKA HOURLY WEATHER ROUNDUP
NATIONAL WEATHER SERVICE NORTH PLATTE NE
100 PM CDT THU OCT 23 2014

***STATIONS NOT REPORTING VARIABLES SUCH AS SKY/WEATHER OR
PRESSURE ARE PROVIDED BY THE NEBRASKA DEPARTMENT OF
ROADS...RAWS...AND APRS NETWORKS...AND ARE NOT UNDER
NATIONAL WEATHER SERVICE QUALITY CONTROL***

...OBSERVATIONS IN AND NEAR THE EASTERN PANHANDLE OF NEBRASKA...

CITY           SKY/WX    TMP DP  RH WIND       PRES   REMARKS
PINE RIDGE     PTSUNNY   64  35  34 W8        29.99F
CHADRON        CLOUDY    66  37  34 SW14      29.99F
ALLIANCE       PTSUNNY   67  32  27 W22       30.05F
SIDNEY         MOSUNNY   70  39  32 S15       30.10F
WHITECLAY        N/A     66  32  27 SW8         N/A
RUSHVILLE        N/A     63  31  30 SW18        N/A
CRESCENT LAKE    N/A     70  33  26 SW15G22     N/A
LISCO            N/A     68  34  28 CALM        N/A
BIG SPRINGS      N/A     60  44  56 W3          N/A
LEWELLEN         N/A     77  34  21 W3          N/A
$$

...OBSERVATIONS IN NORTH CENTRAL NEBRASKA...

CITY           SKY/WX    TMP DP  RH WIND       PRES   REMARKS
VALENTINE      SUNNY     70  39  32 SW12      30.00F
THEDFORD       SUNNY     73  45  37 SW14G23   30.04F
AINSWORTH      SUNNY     70  36  28 SW15      30.01F
O`NEILL        SUNNY     69  50  50 SW17      30.03F
ORD            SUNNY     65  52  62 S13       30.05F
BROKEN BOW     SUNNY     63  56  78 SW9       30.07F
BROWNLEE         N/A     73  36  25 SW20        N/A
SPRINGVIEW       N/A     70  44  38 CALM        N/A
BREWSTER         N/A     74  49  40 SW14        N/A
ROSE             N/A     70  50  48 S8          N/A
NEWPORT          N/A     65  50  58 S10         N/A
SARGENT          N/A     63  53  68 SW5         N/A
COMSTOCK         N/A     72  56  57 SW8         N/A
CHAMBERS         N/A     68  46  45 S13         N/A
EWING            N/A     69  49  48 SW10        N/A
$$

...OBSERVATIONS IN SOUTHWEST NEBRASKA AND FAR NORTHEAST COLORADO...

CITY           SKY/WX    TMP DP  RH WIND       PRES   REMARKS
WRAY           FAIR      75  42  30 S7        30.11F
HOLYOKE        FAIR      73  41  31 W7        30.10F
IMPERIAL       MOSUNNY   72  43  35 SW14      30.09F
OGALLALA       PTSUNNY   70  46  42 SW3       30.07F
NORTH PLATTE   MOSUNNY   70  47  43 S10       30.07F
MCCOOK         MOSUNNY   66  51  58 MISG      30.10F
LEXINGTON      SUNNY     62  61  96 S9        30.08F
PAXTON           N/A     65  50  58 S10         N/A
SUTHERLAND       N/A     72  44  35 SW16        N/A
BRADY            N/A     60  56  86 CALM        N/A
GOTHENBURG       N/A     58  54  87 CALM        N/A
CALLAWAY         N/A     60  58  92 SW12        N/A
$$

...SOME WEATHER OBSERVATIONS FROM AROUND THE REGION...

CITY           SKY/WX    TMP DP  RH WIND       PRES   REMARKS
DENVER         PTSUNNY   69  27  20 SW10      30.15F
LARAMIE        MOSUNNY   59  28  30 W17G25    30.22R
CHEYENNE       PTSUNNY   62  31  31 SW12      30.17F
SCOTTSBLUFF    CLOUDY    63  41  44 CALM      30.07F
RAPID CITY     PTSUNNY   63  30  28 SE6       29.95F
PIERRE         SUNNY     61  38  42 S5        29.94F
WINNER         FAIR      69  31  24 VRB3      29.98F
SIOUX FALLS    MOSUNNY   65  48  54 SW6       30.02F
OMAHA          SUNNY     64  55  72 SW5       30.06F
GRAND ISLAND   MOSUNNY   58  53  84 SW5       30.10F
KANSAS CITY    DRIZZLE   63  61  93 SW8       30.09F FOG
WICHITA        CLOUDY    69  60  73 S9        30.10F
HAYS           PTSUNNY   64  57  77 W5        30.12S
LIBERAL        CLOUDY    61  57  88 E6        30.14F
GOODLAND       SUNNY     71  44  37 S10       30.13F
$$



USA.gov is the U.S. government's official web portal to all federal, state and local government web resources and services.